Year,Month,Day,Hour,Minute,Value (Times are PST for temperature in C)
2006,08,18,00,00,12.70
2006,08,18,00,01,12.70
2006,08,18,00,02,12.70
2006,08,18,00,03,12.70
2006,08,18,00,04,12.60
2006,08,18,00,05,12.60
2006,08,18,00,06,12.60
2006,08,18,00,07,12.60
2006,08,18,00,08,12.60
2006,08,18,00,09,12.60
2006,08,18,00,10,12.60
2006,08,18,00,11,12.60
2006,08,18,00,12,12.60
2006,08,18,00,13,12.60
2006,08,18,00,14,12.50
2006,08,18,00,15,12.50
2006,08,18,00,16,12.40
2006,08,18,00,17,12.40
2006,08,18,00,18,12.40
2006,08,18,00,19,12.30
2006,08,18,00,20,12.30
2006,08,18,00,21,12.30
2006,08,18,00,22,12.30
2006,08,18,00,23,12.30
2006,08,18,00,24,12.30
2006,08,18,00,25,12.30
2006,08,18,00,26,12.20
2006,08,18,00,27,12.20
2006,08,18,00,28,12.20
2006,08,18,00,29,12.20
2006,08,18,00,30,12.20
2006,08,18,00,31,12.10
2006,08,18,00,32,12.10
2006,08,18,00,33,12.10
2006,08,18,00,34,12.10
2006,08,18,00,35,12.00
2006,08,18,00,36,12.00
2006,08,18,00,37,12.00
2006,08,18,00,38,12.00
2006,08,18,00,39,11.90
2006,08,18,00,40,11.90
2006,08,18,00,41,11.90
2006,08,18,00,42,11.90
2006,08,18,00,43,11.90
2006,08,18,00,44,11.80
2006,08,18,00,45,11.80
2006,08,18,00,46,11.80
2006,08,18,00,47,11.80
2006,08,18,00,48,11.80
2006,08,18,00,49,11.80
2006,08,18,00,50,11.80
2006,08,18,00,51,11.70
2006,08,18,00,52,11.70
2006,08,18,00,53,11.70
2006,08,18,00,54,11.70
2006,08,18,00,55,11.70
2006,08,18,00,56,11.70
2006,08,18,00,57,11.60
2006,08,18,00,58,11.60
2006,08,18,00,59,11.60
2006,08,18,01,00,11.60
2006,08,18,01,01,11.60
2006,08,18,01,02,11.60
2006,08,18,01,03,11.60
2006,08,18,01,04,11.60
2006,08,18,01,05,11.60
2006,08,18,01,06,11.60
2006,08,18,01,07,11.60
2006,08,18,01,08,11.60
2006,08,18,01,09,11.70
2006,08,18,01,10,11.70
2006,08,18,01,11,11.80
2006,08,18,01,12,11.80
2006,08,18,01,13,11.90
2006,08,18,01,14,11.90
2006,08,18,01,15,12.00
2006,08,18,01,16,12.00
2006,08,18,01,17,12.00
2006,08,18,01,18,12.00
2006,08,18,01,19,12.00
2006,08,18,01,20,12.10
2006,08,18,01,21,12.00
2006,08,18,01,22,12.00
2006,08,18,01,23,12.00
2006,08,18,01,24,12.00
2006,08,18,01,25,12.00
2006,08,18,01,26,12.00
2006,08,18,01,27,12.00
2006,08,18,01,28,12.00
2006,08,18,01,29,12.00
2006,08,18,01,30,12.00
2006,08,18,01,31,11.90
2006,08,18,01,32,11.90
2006,08,18,01,33,11.80
2006,08,18,01,34,11.80
2006,08,18,01,35,11.80
2006,08,18,01,36,11.80
2006,08,18,01,37,11.80
2006,08,18,01,38,11.80
2006,08,18,01,39,11.80
2006,08,18,01,40,11.90
2006,08,18,01,41,11.90
2006,08,18,01,42,11.90
2006,08,18,01,43,11.90
2006,08,18,01,44,11.90
2006,08,18,01,45,11.90
2006,08,18,01,46,11.80
2006,08,18,01,47,11.80
2006,08,18,01,48,11.80
2006,08,18,01,49,11.80
2006,08,18,01,50,11.80
2006,08,18,01,51,11.80
2006,08,18,01,52,11.70
2006,08,18,01,53,11.70
2006,08,18,01,54,11.70
2006,08,18,01,55,11.60
2006,08,18,01,56,11.60
2006,08,18,01,57,11.60
2006,08,18,01,58,11.60
2006,08,18,01,59,11.60
2006,08,18,02,00,11.60
2006,08,18,02,01,11.60
2006,08,18,02,02,11.60
2006,08,18,02,03,11.50
2006,08,18,02,04,11.40
2006,08,18,02,05,11.40
2006,08,18,02,06,11.40
2006,08,18,02,07,11.40
2006,08,18,02,08,11.30
2006,08,18,02,09,11.30
2006,08,18,02,10,11.30
2006,08,18,02,11,11.30
2006,08,18,02,12,11.30
2006,08,18,02,13,11.30
2006,08,18,02,14,11.30
2006,08,18,02,15,11.30
2006,08,18,02,16,11.30
2006,08,18,02,17,11.30
2006,08,18,02,18,11.30
2006,08,18,02,19,11.20
2006,08,18,02,20,11.20
2006,08,18,02,21,11.20
2006,08,18,02,22,11.20
2006,08,18,02,23,11.20
2006,08,18,02,24,11.20
2006,08,18,02,25,11.20
2006,08,18,02,26,11.20
2006,08,18,02,27,11.20
2006,08,18,02,28,11.10
2006,08,18,02,29,11.10
2006,08,18,02,30,11.10
2006,08,18,02,31,11.10
2006,08,18,02,32,11.10
2006,08,18,02,33,11.10
2006,08,18,02,34,11.10
2006,08,18,02,35,11.10
2006,08,18,02,36,11.20
2006,08,18,02,37,11.20
2006,08,18,02,38,11.20
2006,08,18,02,39,11.20
2006,08,18,02,40,11.20
2006,08,18,02,41,11.20
2006,08,18,02,42,11.20
2006,08,18,02,43,11.20
2006,08,18,02,44,11.20
2006,08,18,02,45,11.20
2006,08,18,02,46,11.20
2006,08,18,02,47,11.20
2006,08,18,02,48,11.20
2006,08,18,02,49,11.20
2006,08,18,02,50,11.20
2006,08,18,02,51,11.20
2006,08,18,02,52,11.20
2006,08,18,02,53,11.20
2006,08,18,02,54,11.20
2006,08,18,02,55,11.20
2006,08,18,02,56,11.20
2006,08,18,02,57,11.20
2006,08,18,02,58,11.20
2006,08,18,02,59,11.20
2006,08,18,03,00,11.20
2006,08,18,03,01,11.20
2006,08,18,03,02,11.20
2006,08,18,03,03,11.20
2006,08,18,03,04,11.20
2006,08,18,03,05,11.20
2006,08,18,03,06,11.20
2006,08,18,03,07,11.20
2006,08,18,03,08,11.20
2006,08,18,03,09,11.10
2006,08,18,03,10,11.10
2006,08,18,03,11,11.10
2006,08,18,03,12,11.10
2006,08,18,03,13,11.10
2006,08,18,03,14,11.10
2006,08,18,03,15,11.10
2006,08,18,03,16,11.10
2006,08,18,03,17,11.10
2006,08,18,03,18,11.10
2006,08,18,03,19,11.10
2006,08,18,03,20,11.00
2006,08,18,03,21,10.90
2006,08,18,03,22,10.90
2006,08,18,03,23,10.90
2006,08,18,03,24,10.90
2006,08,18,03,25,10.90
2006,08,18,03,26,10.90
2006,08,18,03,27,10.90
2006,08,18,03,28,10.90
2006,08,18,03,29,10.90
2006,08,18,03,30,10.90
2006,08,18,03,31,10.90
2006,08,18,03,32,10.80
2006,08,18,03,33,10.80
2006,08,18,03,34,10.80
2006,08,18,03,35,10.70
2006,08,18,03,36,10.70
2006,08,18,03,37,10.70
2006,08,18,03,38,10.70
2006,08,18,03,39,10.70
2006,08,18,03,40,10.70
2006,08,18,03,41,10.70
2006,08,18,03,42,10.70
2006,08,18,03,43,10.70
2006,08,18,03,44,10.70
2006,08,18,03,45,10.70
2006,08,18,03,46,10.60
2006,08,18,03,47,10.60
2006,08,18,03,48,10.60
2006,08,18,03,49,10.60
2006,08,18,03,50,10.60
2006,08,18,03,51,10.60
2006,08,18,03,52,10.60
2006,08,18,03,53,10.60
2006,08,18,03,54,10.60
2006,08,18,03,55,10.60
2006,08,18,03,56,10.60
2006,08,18,03,57,10.50
2006,08,18,03,58,10.40
2006,08,18,03,59,10.40
2006,08,18,04,00,10.40
2006,08,18,04,01,10.40
2006,08,18,04,02,10.40
2006,08,18,04,03,10.40
2006,08,18,04,04,10.40
2006,08,18,04,05,10.40
2006,08,18,04,06,10.40
2006,08,18,04,07,10.30
2006,08,18,04,08,10.30
2006,08,18,04,09,10.30
2006,08,18,04,10,10.30
2006,08,18,04,11,10.30
2006,08,18,04,12,10.30
2006,08,18,04,13,10.30
2006,08,18,04,14,10.30
2006,08,18,04,15,10.30
2006,08,18,04,16,10.30
2006,08,18,04,17,10.30
2006,08,18,04,18,10.30
2006,08,18,04,19,10.30
2006,08,18,04,20,10.20
2006,08,18,04,21,10.20
2006,08,18,04,22,10.20
2006,08,18,04,23,10.20
2006,08,18,04,24,10.20
2006,08,18,04,25,10.20
2006,08,18,04,26,10.20
2006,08,18,04,27,10.20
2006,08,18,04,28,10.20
2006,08,18,04,29,10.20
2006,08,18,04,30,10.10
2006,08,18,04,31,10.10
2006,08,18,04,32,10.10
2006,08,18,04,33,10.10
2006,08,18,04,34,10.10
2006,08,18,04,35,10.10
2006,08,18,04,36,10.10
2006,08,18,04,37,10.10
2006,08,18,04,38,10.10
2006,08,18,04,39,10.10
2006,08,18,04,40,10.10
2006,08,18,04,41,10.10
2006,08,18,04,42,10.10
2006,08,18,04,43,10.20
2006,08,18,04,44,10.20
2006,08,18,04,45,10.20
2006,08,18,04,46,10.20
2006,08,18,04,47,10.30
2006,08,18,04,48,10.30
2006,08,18,04,49,10.40
2006,08,18,04,50,10.40
2006,08,18,04,51,10.40
2006,08,18,04,52,10.40
2006,08,18,04,53,10.50
2006,08,18,04,54,10.60
2006,08,18,04,55,10.60
2006,08,18,04,56,10.60
2006,08,18,04,57,10.60
2006,08,18,04,58,10.60
2006,08,18,04,59,10.60
2006,08,18,05,00,10.60
2006,08,18,05,01,10.60
2006,08,18,05,02,10.60
2006,08,18,05,03,10.60
2006,08,18,05,04,10.60
2006,08,18,05,05,10.60
2006,08,18,05,06,10.40
2006,08,18,05,07,10.40
2006,08,18,05,08,10.40
2006,08,18,05,09,10.30
2006,08,18,05,10,10.30
2006,08,18,05,11,10.20
2006,08,18,05,12,10.20
2006,08,18,05,13,10.20
2006,08,18,05,14,10.20
2006,08,18,05,15,10.20
2006,08,18,05,16,10.30
2006,08,18,05,17,10.30
2006,08,18,05,18,10.30
2006,08,18,05,19,10.40
2006,08,18,05,20,10.40
2006,08,18,05,21,10.40
2006,08,18,05,22,10.40
2006,08,18,05,23,10.40
2006,08,18,05,24,10.40
2006,08,18,05,25,10.40
2006,08,18,05,26,10.40
2006,08,18,05,27,10.40
2006,08,18,05,28,10.40
2006,08,18,05,29,10.40
2006,08,18,05,30,10.40
2006,08,18,05,31,10.40
2006,08,18,05,32,10.40
2006,08,18,05,33,10.40
2006,08,18,05,34,10.40
2006,08,18,05,35,10.40
2006,08,18,05,36,10.30
2006,08,18,05,37,10.30
2006,08,18,05,38,10.30
2006,08,18,05,39,10.30
2006,08,18,05,40,10.30
2006,08,18,05,41,10.30
2006,08,18,05,42,10.20
2006,08,18,05,43,10.20
2006,08,18,05,44,10.20
2006,08,18,05,45,10.20
2006,08,18,05,46,10.20
2006,08,18,05,47,10.20
2006,08,18,05,48,10.20
2006,08,18,05,49,10.20
2006,08,18,05,50,10.20
2006,08,18,05,51,10.20
2006,08,18,05,52,10.20
2006,08,18,05,53,10.20
2006,08,18,05,54,10.30
2006,08,18,05,55,10.30
2006,08,18,05,56,10.20
2006,08,18,05,57,10.20
2006,08,18,05,58,10.20
2006,08,18,05,59,10.20
2006,08,18,06,00,10.20
2006,08,18,06,01,10.20
2006,08,18,06,02,10.20
2006,08,18,06,03,10.10
2006,08,18,06,04,10.10
2006,08,18,06,05,10.10
2006,08,18,06,06,10.10
2006,08,18,06,07,10.10
2006,08,18,06,08,10.10
2006,08,18,06,09,10.10
2006,08,18,06,10,10.10
2006,08,18,06,11,10.10
2006,08,18,06,12,10.10
2006,08,18,06,13,10.20
2006,08,18,06,14,10.20
2006,08,18,06,15,10.20
2006,08,18,06,16,10.20
2006,08,18,06,17,10.20
2006,08,18,06,18,10.30
2006,08,18,06,19,10.30
2006,08,18,06,20,10.40
2006,08,18,06,21,10.40
2006,08,18,06,22,10.30
2006,08,18,06,23,10.30
2006,08,18,06,24,10.30
2006,08,18,06,25,10.30
2006,08,18,06,26,10.30
2006,08,18,06,27,10.30
2006,08,18,06,28,10.30
2006,08,18,06,29,10.30
2006,08,18,06,30,10.30
2006,08,18,06,31,10.30
2006,08,18,06,32,10.30
2006,08,18,06,33,10.30
2006,08,18,06,34,10.40
2006,08,18,06,35,10.40
2006,08,18,06,36,10.40
2006,08,18,06,37,10.40
2006,08,18,06,38,10.40
2006,08,18,06,39,10.40
2006,08,18,06,40,10.40
2006,08,18,06,41,10.50
2006,08,18,06,42,10.60
2006,08,18,06,43,10.60
2006,08,18,06,44,10.60
2006,08,18,06,45,10.60
2006,08,18,06,46,10.70
2006,08,18,06,47,10.70
2006,08,18,06,48,10.80
2006,08,18,06,49,10.80
2006,08,18,06,50,10.80
2006,08,18,06,51,10.90
2006,08,18,06,52,10.90
2006,08,18,06,53,10.90
2006,08,18,06,54,10.90
2006,08,18,06,55,10.90
2006,08,18,06,56,10.90
2006,08,18,06,57,10.90
2006,08,18,06,58,11.00
2006,08,18,06,59,11.10
2006,08,18,07,00,11.10
2006,08,18,07,01,11.10
2006,08,18,07,02,11.10
2006,08,18,07,03,11.10
2006,08,18,07,04,11.10
2006,08,18,07,05,11.20
2006,08,18,07,06,11.20
2006,08,18,07,07,11.20
2006,08,18,07,08,11.30
2006,08,18,07,09,11.30
2006,08,18,07,10,11.30
2006,08,18,07,11,11.40
2006,08,18,07,12,11.50
2006,08,18,07,13,11.60
2006,08,18,07,14,11.60
2006,08,18,07,15,11.60
2006,08,18,07,16,11.60
2006,08,18,07,17,11.60
2006,08,18,07,18,11.60
2006,08,18,07,19,11.60
2006,08,18,07,20,11.60
2006,08,18,07,21,11.60
2006,08,18,07,22,11.60
2006,08,18,07,23,11.60
2006,08,18,07,24,11.50
2006,08,18,07,25,11.40
2006,08,18,07,26,11.40
2006,08,18,07,27,11.40
2006,08,18,07,28,11.40
2006,08,18,07,29,11.40
2006,08,18,07,30,11.40
2006,08,18,07,31,11.40
2006,08,18,07,32,11.50
2006,08,18,07,33,11.60
2006,08,18,07,34,11.60
2006,08,18,07,35,11.60
2006,08,18,07,36,11.60
2006,08,18,07,37,11.60
2006,08,18,07,38,11.60
2006,08,18,07,39,11.60
2006,08,18,07,40,11.60
2006,08,18,07,41,11.60
2006,08,18,07,42,11.60
2006,08,18,07,43,11.60
2006,08,18,07,44,11.60
2006,08,18,07,45,11.60
2006,08,18,07,46,11.60
2006,08,18,07,47,11.60
2006,08,18,07,48,11.60
2006,08,18,07,49,11.60
2006,08,18,07,50,11.70
2006,08,18,07,51,11.70
2006,08,18,07,52,11.70
2006,08,18,07,53,11.70
2006,08,18,07,54,11.80
2006,08,18,07,55,11.80
2006,08,18,07,56,11.80
2006,08,18,07,57,11.80
2006,08,18,07,58,11.80
2006,08,18,07,59,11.80
2006,08,18,08,00,11.80
2006,08,18,08,01,11.80
2006,08,18,08,02,11.90
2006,08,18,08,03,11.90
2006,08,18,08,04,11.90
2006,08,18,08,05,12.00
2006,08,18,08,06,12.00
2006,08,18,08,07,12.00
2006,08,18,08,08,12.10
2006,08,18,08,09,12.10
2006,08,18,08,10,12.10
2006,08,18,08,11,12.20
2006,08,18,08,12,12.20
2006,08,18,08,13,12.20
2006,08,18,08,14,12.30
2006,08,18,08,15,12.30
2006,08,18,08,16,12.30
2006,08,18,08,17,12.30
2006,08,18,08,18,12.30
2006,08,18,08,19,12.30
2006,08,18,08,20,12.30
2006,08,18,08,21,12.40
2006,08,18,08,22,12.40
2006,08,18,08,23,12.40
2006,08,18,08,24,12.40
2006,08,18,08,25,12.50
2006,08,18,08,26,12.60
2006,08,18,08,27,12.60
2006,08,18,08,28,12.60
2006,08,18,08,29,12.70
2006,08,18,08,30,12.70
2006,08,18,08,31,12.80
2006,08,18,08,32,12.80
2006,08,18,08,33,12.80
2006,08,18,08,34,12.90
2006,08,18,08,35,12.90
2006,08,18,08,36,13.00
2006,08,18,08,37,13.10
2006,08,18,08,38,13.10
2006,08,18,08,39,13.20
2006,08,18,08,40,13.20
2006,08,18,08,41,13.20
2006,08,18,08,42,13.30
2006,08,18,08,43,13.30
2006,08,18,08,44,13.30
2006,08,18,08,45,13.30
2006,08,18,08,46,13.30
2006,08,18,08,47,13.40
2006,08,18,08,48,13.40
2006,08,18,08,49,13.40
2006,08,18,08,50,13.30
2006,08,18,08,51,13.30
2006,08,18,08,52,13.30
2006,08,18,08,53,13.30
2006,08,18,08,54,13.20
2006,08,18,08,55,13.10
2006,08,18,08,56,13.10
2006,08,18,08,57,13.00
2006,08,18,08,58,13.00
2006,08,18,08,59,12.90
2006,08,18,09,00,12.90
2006,08,18,09,01,12.90
2006,08,18,09,02,12.90
2006,08,18,09,03,12.80
2006,08,18,09,04,12.80
2006,08,18,09,05,12.70
2006,08,18,09,06,12.60
2006,08,18,09,07,12.60
2006,08,18,09,08,12.50
2006,08,18,09,09,12.50
2006,08,18,09,10,12.40
2006,08,18,09,11,12.40
2006,08,18,09,12,12.50
2006,08,18,09,13,12.50
2006,08,18,09,14,12.50
2006,08,18,09,15,12.60
2006,08,18,09,16,12.70
2006,08,18,09,17,12.70
2006,08,18,09,18,12.80
2006,08,18,09,19,12.80
2006,08,18,09,20,12.80
2006,08,18,09,21,12.90
2006,08,18,09,22,13.00
2006,08,18,09,23,13.00
2006,08,18,09,24,13.10
2006,08,18,09,25,13.10
2006,08,18,09,26,13.10
2006,08,18,09,27,13.20
2006,08,18,09,28,13.20
2006,08,18,09,29,13.20
2006,08,18,09,30,13.20
2006,08,18,09,31,13.20
2006,08,18,09,32,13.10
2006,08,18,09,33,13.00
2006,08,18,09,34,12.90
2006,08,18,09,35,12.90
2006,08,18,09,36,12.80
2006,08,18,09,37,12.80
2006,08,18,09,38,12.80
2006,08,18,09,39,12.80
2006,08,18,09,40,12.80
2006,08,18,09,41,12.90
2006,08,18,09,42,12.90
2006,08,18,09,43,12.90
2006,08,18,09,44,13.00
2006,08,18,09,45,13.00
2006,08,18,09,46,13.00
2006,08,18,09,47,13.00
2006,08,18,09,48,13.00
2006,08,18,09,49,12.90
2006,08,18,09,50,12.90
2006,08,18,09,51,12.90
2006,08,18,09,52,12.70
2006,08,18,09,53,12.70
2006,08,18,09,54,12.60
2006,08,18,09,55,12.60
2006,08,18,09,56,12.60
2006,08,18,09,57,12.60
2006,08,18,09,58,12.70
2006,08,18,09,59,12.70
2006,08,18,10,00,12.80
2006,08,18,10,01,12.80
2006,08,18,10,02,12.80
2006,08,18,10,03,12.90
2006,08,18,10,04,12.90
2006,08,18,10,05,12.90
2006,08,18,10,06,12.90
2006,08,18,10,07,13.00
2006,08,18,10,08,13.00
2006,08,18,10,09,13.10
2006,08,18,10,10,13.10
2006,08,18,10,11,13.20
2006,08,18,10,12,13.20
2006,08,18,10,13,13.20
2006,08,18,10,14,13.20
2006,08,18,10,15,13.10
2006,08,18,10,16,13.10
2006,08,18,10,17,13.10
2006,08,18,10,18,13.10
2006,08,18,10,19,13.10
2006,08,18,10,20,13.20
2006,08,18,10,21,13.10
2006,08,18,10,22,13.10
2006,08,18,10,23,13.10
2006,08,18,10,24,13.10
2006,08,18,10,25,13.20
2006,08,18,10,26,13.30
2006,08,18,10,27,13.30
2006,08,18,10,28,13.30
2006,08,18,10,29,13.30
2006,08,18,10,30,13.30
2006,08,18,10,31,13.30
2006,08,18,10,32,13.30
2006,08,18,10,33,13.30
2006,08,18,10,34,13.40
2006,08,18,10,35,13.40
2006,08,18,10,36,13.50
2006,08,18,10,37,13.50
2006,08,18,10,38,13.70
2006,08,18,10,39,13.70
2006,08,18,10,40,13.80
2006,08,18,10,41,13.90
2006,08,18,10,42,13.90
2006,08,18,10,43,13.90
2006,08,18,10,44,13.90
2006,08,18,10,45,13.90
2006,08,18,10,46,13.90
2006,08,18,10,47,13.90
2006,08,18,10,48,13.70
2006,08,18,10,49,13.70
2006,08,18,10,50,13.70
2006,08,18,10,51,13.70
2006,08,18,10,52,13.70
2006,08,18,10,53,13.70
2006,08,18,10,54,13.70
2006,08,18,10,55,13.70
2006,08,18,10,56,13.80
2006,08,18,10,57,13.70
2006,08,18,10,58,13.70
2006,08,18,10,59,13.70
2006,08,18,11,00,13.70
2006,08,18,11,01,13.70
2006,08,18,11,02,13.80
2006,08,18,11,03,13.80
2006,08,18,11,04,13.90
2006,08,18,11,05,13.90
2006,08,18,11,06,13.90
2006,08,18,11,07,13.90
2006,08,18,11,08,13.90
2006,08,18,11,09,14.00
2006,08,18,11,10,14.00
2006,08,18,11,11,14.00
2006,08,18,11,12,13.90
2006,08,18,11,13,14.00
2006,08,18,11,14,14.00
2006,08,18,11,15,14.10
2006,08,18,11,16,14.20
2006,08,18,11,17,14.20
2006,08,18,11,18,14.20
2006,08,18,11,19,14.10
2006,08,18,11,20,14.10
2006,08,18,11,21,14.10
2006,08,18,11,22,14.20
2006,08,18,11,23,14.20
2006,08,18,11,24,14.30
2006,08,18,11,25,14.20
2006,08,18,11,26,14.20
2006,08,18,11,27,14.40
2006,08,18,11,28,14.50
2006,08,18,11,29,14.70
2006,08,18,11,30,14.90
2006,08,18,11,31,15.00
2006,08,18,11,32,15.10
2006,08,18,11,33,15.10
2006,08,18,11,34,15.10
2006,08,18,11,35,15.20
2006,08,18,11,36,15.20
2006,08,18,11,37,15.20
2006,08,18,11,38,15.20
2006,08,18,11,39,15.30
2006,08,18,11,40,15.30
2006,08,18,11,41,15.30
2006,08,18,11,42,15.20
2006,08,18,11,43,15.20
2006,08,18,11,44,15.20
2006,08,18,11,45,15.30
2006,08,18,11,46,15.30
2006,08,18,11,47,15.30
2006,08,18,11,48,15.30
2006,08,18,11,49,15.40
2006,08,18,11,50,15.40
2006,08,18,11,51,15.50
2006,08,18,11,52,15.50
2006,08,18,11,53,15.60
2006,08,18,11,54,15.70
2006,08,18,11,55,15.80
2006,08,18,11,56,15.80
2006,08,18,11,57,15.80
2006,08,18,11,58,15.80
2006,08,18,11,59,15.90
2006,08,18,12,00,16.10
2006,08,18,12,01,16.20
2006,08,18,12,02,16.20
2006,08,18,12,03,16.30
2006,08,18,12,04,16.50
2006,08,18,12,05,16.60
2006,08,18,12,06,16.60
2006,08,18,12,07,16.70
2006,08,18,12,08,16.80
2006,08,18,12,09,16.90
2006,08,18,12,10,17.00
2006,08,18,12,11,17.10
2006,08,18,12,12,17.20
2006,08,18,12,13,17.30
2006,08,18,12,14,17.30
2006,08,18,12,15,17.30
2006,08,18,12,16,17.50
2006,08,18,12,17,17.70
2006,08,18,12,18,17.80
2006,08,18,12,19,17.90
2006,08,18,12,20,17.80
2006,08,18,12,21,17.70
2006,08,18,12,22,17.60
2006,08,18,12,23,17.50
2006,08,18,12,24,17.30
2006,08,18,12,25,17.10
2006,08,18,12,26,17.10
2006,08,18,12,27,17.00
2006,08,18,12,28,16.90
2006,08,18,12,29,16.90
2006,08,18,12,30,16.90
2006,08,18,12,31,17.00
2006,08,18,12,32,16.90
2006,08,18,12,33,16.90
2006,08,18,12,34,16.80
2006,08,18,12,35,16.70
2006,08,18,12,36,16.70
2006,08,18,12,37,16.70
2006,08,18,12,38,16.70
2006,08,18,12,39,16.70
2006,08,18,12,40,16.70
2006,08,18,12,41,16.60
2006,08,18,12,42,16.50
2006,08,18,12,43,16.50
2006,08,18,12,44,16.60
2006,08,18,12,45,16.80
2006,08,18,12,46,16.80
2006,08,18,12,47,16.90
2006,08,18,12,48,16.90
2006,08,18,12,49,16.80
2006,08,18,12,50,16.60
2006,08,18,12,51,16.60
2006,08,18,12,52,16.60
2006,08,18,12,53,16.60
2006,08,18,12,54,16.80
2006,08,18,12,55,16.90
2006,08,18,12,56,16.90
2006,08,18,12,57,17.10
2006,08,18,12,58,17.10
2006,08,18,12,59,17.00
2006,08,18,13,00,17.00
2006,08,18,13,01,16.90
2006,08,18,13,02,16.90
2006,08,18,13,03,17.00
2006,08,18,13,04,17.20
2006,08,18,13,05,17.30
2006,08,18,13,06,17.60
2006,08,18,13,07,17.70
2006,08,18,13,08,17.60
2006,08,18,13,09,17.60
2006,08,18,13,10,17.60
2006,08,18,13,11,17.70
2006,08,18,13,12,17.90
2006,08,18,13,13,17.90
2006,08,18,13,14,17.90
2006,08,18,13,15,17.90
2006,08,18,13,16,17.80
2006,08,18,13,17,17.70
2006,08,18,13,18,17.80
2006,08,18,13,19,17.80
2006,08,18,13,20,17.90
2006,08,18,13,21,17.90
2006,08,18,13,22,18.10
2006,08,18,13,23,18.10
2006,08,18,13,24,17.90
2006,08,18,13,25,17.90
2006,08,18,13,26,17.80
2006,08,18,13,27,17.70
2006,08,18,13,28,17.50
2006,08,18,13,29,17.30
2006,08,18,13,30,17.30
2006,08,18,13,31,17.30
2006,08,18,13,32,17.30
2006,08,18,13,33,17.20
2006,08,18,13,34,17.20
2006,08,18,13,35,17.10
2006,08,18,13,36,17.00
2006,08,18,13,37,16.80
2006,08,18,13,38,16.80
2006,08,18,13,39,16.80
2006,08,18,13,40,17.00
2006,08,18,13,41,17.20
2006,08,18,13,42,17.30
2006,08,18,13,43,17.30
2006,08,18,13,44,17.30
2006,08,18,13,45,17.30
2006,08,18,13,46,17.30
2006,08,18,13,47,17.30
2006,08,18,13,48,17.30
2006,08,18,13,49,17.40
2006,08,18,13,50,17.50
2006,08,18,13,51,17.50
2006,08,18,13,52,17.40
2006,08,18,13,53,17.50
2006,08,18,13,54,17.50
2006,08,18,13,55,17.50
2006,08,18,13,56,17.50
2006,08,18,13,57,17.50
2006,08,18,13,58,17.50
2006,08,18,13,59,17.50
2006,08,18,14,00,17.40
2006,08,18,14,01,17.30
2006,08,18,14,02,17.30
2006,08,18,14,03,17.30
2006,08,18,14,04,17.30
2006,08,18,14,05,17.10
2006,08,18,14,06,17.00
2006,08,18,14,07,17.10
2006,08,18,14,08,17.20
2006,08,18,14,09,17.30
2006,08,18,14,10,17.30
2006,08,18,14,11,17.30
2006,08,18,14,12,17.50
2006,08,18,14,13,17.60
2006,08,18,14,14,17.70
2006,08,18,14,15,17.70
2006,08,18,14,16,17.80
2006,08,18,14,17,17.90
2006,08,18,14,18,17.90
2006,08,18,14,19,17.90
2006,08,18,14,20,17.90
2006,08,18,14,21,18.00
2006,08,18,14,22,18.10
2006,08,18,14,23,18.10
2006,08,18,14,24,18.10
2006,08,18,14,25,18.10
2006,08,18,14,26,18.20
2006,08,18,14,27,18.30
2006,08,18,14,28,18.50
2006,08,18,14,29,18.50
2006,08,18,14,30,18.70
2006,08,18,14,31,18.80
2006,08,18,14,32,18.90
2006,08,18,14,33,18.90
2006,08,18,14,34,18.90
2006,08,18,14,35,19.00
2006,08,18,14,36,19.10
2006,08,18,14,37,19.10
2006,08,18,14,38,19.10
2006,08,18,14,39,19.10
2006,08,18,14,40,19.10
2006,08,18,14,41,19.10
2006,08,18,14,42,19.10
2006,08,18,14,43,19.10
2006,08,18,14,44,19.10
2006,08,18,14,45,19.10
2006,08,18,14,46,19.10
2006,08,18,14,47,19.10
2006,08,18,14,48,19.10
2006,08,18,14,49,19.10
2006,08,18,14,50,19.20
2006,08,18,14,51,19.30
2006,08,18,14,52,19.40
2006,08,18,14,53,19.60
2006,08,18,14,54,19.60
2006,08,18,14,55,19.70
2006,08,18,14,56,19.80
2006,08,18,14,57,19.80
2006,08,18,14,58,19.90
2006,08,18,14,59,19.90
2006,08,18,15,00,20.00
2006,08,18,15,01,20.10
2006,08,18,15,02,20.10
2006,08,18,15,03,20.10
2006,08,18,15,04,20.40
2006,08,18,15,05,20.30
2006,08,18,15,06,20.30
2006,08,18,15,07,20.40
2006,08,18,15,08,20.30
2006,08,18,15,09,20.30
2006,08,18,15,10,20.30
2006,08,18,15,11,20.30
2006,08,18,15,12,20.40
2006,08,18,15,13,20.30
2006,08,18,15,14,20.20
2006,08,18,15,15,20.10
2006,08,18,15,16,20.00
2006,08,18,15,17,19.80
2006,08,18,15,18,19.60
2006,08,18,15,19,19.60
2006,08,18,15,20,19.50
2006,08,18,15,21,19.50
2006,08,18,15,22,19.60
2006,08,18,15,23,19.70
2006,08,18,15,24,19.70
2006,08,18,15,25,19.80
2006,08,18,15,26,19.70
2006,08,18,15,27,19.50
2006,08,18,15,28,19.30
2006,08,18,15,29,19.10
2006,08,18,15,30,19.10
2006,08,18,15,31,19.10
2006,08,18,15,32,19.00
2006,08,18,15,33,18.90
2006,08,18,15,34,18.90
2006,08,18,15,35,18.80
2006,08,18,15,36,18.80
2006,08,18,15,37,18.90
2006,08,18,15,38,18.90
2006,08,18,15,39,19.10
2006,08,18,15,40,19.20
2006,08,18,15,41,19.30
2006,08,18,15,42,19.30
2006,08,18,15,43,19.40
2006,08,18,15,44,19.40
2006,08,18,15,45,19.30
2006,08,18,15,46,19.40
2006,08,18,15,47,19.50
2006,08,18,15,48,19.50
2006,08,18,15,49,19.50
2006,08,18,15,50,19.60
2006,08,18,15,51,19.50
2006,08,18,15,52,19.60
2006,08,18,15,53,19.60
2006,08,18,15,54,19.60
2006,08,18,15,55,19.70
2006,08,18,15,56,19.80
2006,08,18,15,57,19.80
2006,08,18,15,58,19.80
2006,08,18,15,59,19.80
2006,08,18,16,00,19.90
2006,08,18,16,01,19.90
2006,08,18,16,02,19.90
2006,08,18,16,03,19.90
2006,08,18,16,04,19.90
2006,08,18,16,05,19.90
2006,08,18,16,06,20.10
2006,08,18,16,07,20.20
2006,08,18,16,08,20.20
2006,08,18,16,09,20.20
2006,08,18,16,10,20.20
2006,08,18,16,11,20.10
2006,08,18,16,12,20.10
2006,08,18,16,13,19.90
2006,08,18,16,14,19.80
2006,08,18,16,15,19.70
2006,08,18,16,16,19.70
2006,08,18,16,17,19.70
2006,08,18,16,18,19.80
2006,08,18,16,19,19.90
2006,08,18,16,20,19.90
2006,08,18,16,21,19.90
2006,08,18,16,22,20.00
2006,08,18,16,23,19.90
2006,08,18,16,24,19.90
2006,08,18,16,25,19.90
2006,08,18,16,26,19.90
2006,08,18,16,27,20.10
2006,08,18,16,28,20.20
2006,08,18,16,29,20.20
2006,08,18,16,30,20.10
2006,08,18,16,31,20.00
2006,08,18,16,32,19.90
2006,08,18,16,33,20.00
2006,08,18,16,34,20.10
2006,08,18,16,35,20.00
2006,08,18,16,36,19.90
2006,08,18,16,37,19.90
2006,08,18,16,38,19.90
2006,08,18,16,39,19.90
2006,08,18,16,40,19.90
2006,08,18,16,41,19.90
2006,08,18,16,42,19.90
2006,08,18,16,43,19.90
2006,08,18,16,44,19.90
2006,08,18,16,45,20.00
2006,08,18,16,46,20.10
2006,08,18,16,47,20.20
2006,08,18,16,48,20.30
2006,08,18,16,49,20.40
2006,08,18,16,50,20.50
2006,08,18,16,51,20.40
2006,08,18,16,52,20.20
2006,08,18,16,53,20.00
2006,08,18,16,54,20.00
2006,08,18,16,55,20.10
2006,08,18,16,56,20.10
2006,08,18,16,57,20.20
2006,08,18,16,58,20.20
2006,08,18,16,59,20.10
2006,08,18,17,00,20.10
2006,08,18,17,01,20.10
2006,08,18,17,02,20.10
2006,08,18,17,03,20.20
2006,08,18,17,04,20.20
2006,08,18,17,05,20.40
2006,08,18,17,06,20.50
2006,08,18,17,07,20.50
2006,08,18,17,08,20.50
2006,08,18,17,09,20.50
2006,08,18,17,10,20.60
2006,08,18,17,11,20.70
2006,08,18,17,12,20.70
2006,08,18,17,13,20.80
2006,08,18,17,14,20.90
2006,08,18,17,15,21.00
2006,08,18,17,16,21.00
2006,08,18,17,17,21.00
2006,08,18,17,18,21.10
2006,08,18,17,19,21.20